Back to catalog

STARLINK-36181

AliveCommunicationsVLEO
NORAD 68047·PAYLOAD·🇺🇸 United States

Launched Mar 2, 2026 from Vandenberg Space Force Base

Loading…

Next Passes (next 24 hours)

TLE

FreshSource: CelesTrak SupGP

Epoch: Sep 14, 2026, 23:24 UTC

1 68047C 26041H   26257.97548611  .00020559  00000+0  60733-3 0  2570
2 68047  53.1578 247.2137 0001417  99.4855  31.8663 15.34385006    18

Track STARLINK-36181 in real time with AllMySat

Download on the App Store